Вернуться в каталог

STARLINK-11394

АктивенСвязьVLEO
NORAD 62218·PAYLOAD·🇺🇸 United States

Запущен Dec 5, 2024 с Vandenberg Space Force Base

Loading…

Ближайшие Пролёты (ближайшие 24 часа)

TLE

СвежийSource: CelesTrak SupGP

Эпоха: Sep 14, 2026, 22:34 UTC

1 62218C 24231A   26257.94076389  .00070674  00000+0  58208-3 0  2575
2 62218  53.1572 248.3355 0001156  89.0143 334.3056 15.69677450    17

Отслеживайте STARLINK-11394 в реальном времени с AllMySat

Download on the App Store